Weather History for KIML - April, 2013

Change the Weather History Date:

Friday, April 12, 2013

  Actual Average Record
Temperature  
Mean Temperature 41 °F 47 °F  
Max Temperature 53 °F 61 °F 88 °F (1899)
Min Temperature 28 °F 33 °F 8 °F (1997)
Degree Days  
Heating Degree Days 24 18  
Month to date heating degree days 264 233  
Cooling Degree Days 0 0  
Month to date cooling degree days 0 0  
Year to date cooling degree days 0 0  
Moisture  
Dew Point 31 °F    
Average Humidity 73    
Maximum Humidity 100    
Minimum Humidity 45    
Precipitation  
Precipitation 0.04 in 0.07 in 1.05 in (2001)
Sea Level Pressure  
Sea Level Pressure 29.98 in    
Wind  
Wind Speed 9 mph (NW)    
Max Wind Speed 25 mph    
Max Gust Speed 31 mph    
Visibility 10 miles    
Events Rain    
T = Trace of Precipitation, MM = Missing Value Source: NWS Daily Summary

Daily Weather History Graph

Daily Weather History Graph

Search for Another Location

Airport or City:

Trip Planner

Search our weather history database for the weather conditions in past years. The results will help you decide how hot, cold, wet, or windy it might be!

Date:

Astronomy

Apr. 12, 2013 Rise Set
Actual Time 6:12 AM MDT 7:22 PM MDT
Civil Twilight 5:44 AM MDT 7:51 PM MDT
Nautical Twilight 5:10 AM MDT 8:24 PM MDT
Astronomical Twilight 4:35 AM MDT 8:59 PM MDT
Moon 7:22 AM MDT (4/12) 9:56 PM MDT (4/12)
Length of Visible Light 14h 06m
Length of Day
13h 10m
Waxing Crescent, 5% of the Moon is Illuminated
Apr 12
Waxing Crescent
Apr 18
First Quarter
Apr 25
Full
May 2
Last Quarter
May 9
New

Hourly Weather History & Observations

Time (MDT) Temp. Windchill Dew Point Humidity Pressure Visibility Wind Dir Wind Speed Gust Speed Precip Events Conditions
12:53 AM 30.9 °F 25.2 °F 24.1 °F 76% 29.96 in 10.0 mi NW 5.8 mph - N/A   Overcast
1:53 AM 32.0 °F 25.6 °F 25.0 °F 75% 29.95 in 10.0 mi WSW 6.9 mph - N/A   Overcast
2:53 AM 30.9 °F 22.8 °F 25.0 °F 79% 29.94 in 10.0 mi WNW 9.2 mph - N/A   Mostly Cloudy
3:08 AM 30.2 °F 21.9 °F 24.8 °F 80% 29.87 in 10.0 mi NW 9.2 mph - N/A   Scattered Clouds
3:53 AM 30.9 °F 24.3 °F 26.1 °F 82% 29.94 in 10.0 mi WNW 6.9 mph - N/A   Scattered Clouds
4:53 AM 28.0 °F 20.8 °F 25.0 °F 88% 29.95 in 10.0 mi WSW 6.9 mph - N/A   Clear
5:53 AM 28.9 °F 22.8 °F 26.1 °F 89% 29.94 in 9.0 mi West 5.8 mph - N/A   Clear
6:53 AM 32.0 °F 26.4 °F 28.0 °F 85% 29.94 in 9.0 mi WNW 5.8 mph - N/A   Partly Cloudy
7:53 AM 37.0 °F 33.3 °F 30.0 °F 76% 29.95 in 10.0 mi NNE 4.6 mph - N/A   Clear
8:53 AM 44.1 °F 38.1 °F 30.0 °F 58% 29.95 in 10.0 mi North 11.5 mph - N/A   Clear
9:53 AM 48.0 °F - 30.0 °F 50% 29.96 in 10.0 mi NNW 12.7 mph - N/A   Clear
10:53 AM 51.1 °F - 32.0 °F 48% 29.96 in 10.0 mi North 16.1 mph - N/A   Mostly Cloudy
11:53 AM 53.1 °F - 32.0 °F 45% 29.95 in 10.0 mi North 13.8 mph 19.6 mph N/A   Mostly Cloudy
12:53 PM 52.0 °F - 32.0 °F 47% 29.95 in 10.0 mi North 15.0 mph 21.9 mph N/A   Overcast
1:53 PM 46.0 °F 39.6 °F 35.1 °F 66% 30.00 in 10.0 mi North 15.0 mph 21.9 mph 0.00 in Rain Light Rain
2:53 PM 45.0 °F 37.6 °F 33.1 °F 63% 30.01 in 10.0 mi North 17.3 mph - 0.00 in   Overcast
3:14 PM 39.2 °F 29.3 °F 35.6 °F 87% 29.99 in 4.0 mi North 20.7 mph 28.8 mph 0.02 in Rain Light Rain
3:53 PM 39.9 °F 31.8 °F 37.0 °F 89% 30.04 in 10.0 mi North 15.0 mph - 0.04 in Rain Light Rain
4:18 PM 41.0 °F 35.2 °F 37.4 °F 87% 29.97 in 10.0 mi North 9.2 mph - 0.00 in   Overcast
4:49 PM 42.8 °F 37.0 °F 37.4 °F 81% 29.98 in 10.0 mi North 10.4 mph - 0.00 in   Overcast
4:53 PM 42.1 °F 36.1 °F 37.0 °F 82% 30.04 in 10.0 mi North 10.4 mph - 0.00 in   Overcast
5:34 PM 44.6 °F 40.2 °F 37.4 °F 76% 29.98 in 10.0 mi NNW 8.1 mph - N/A   Mostly Cloudy
5:53 PM 44.1 °F 39.5 °F 36.0 °F 73% 30.04 in 10.0 mi NNW 8.1 mph - N/A   Overcast
6:12 PM 44.6 °F 40.2 °F 35.6 °F 71% 29.98 in 10.0 mi North 8.1 mph - N/A   Mostly Cloudy
6:53 PM 43.0 °F 39.5 °F 35.1 °F 74% 30.02 in 10.0 mi NNW 5.8 mph - N/A   Clear
7:53 PM 39.9 °F - 34.0 °F 79% 30.02 in 10.0 mi Calm Calm - N/A   Clear
8:53 PM 35.1 °F 31.0 °F 32.0 °F 89% 30.04 in 10.0 mi WSW 4.6 mph - N/A   Clear
9:53 PM 34.0 °F 28.8 °F 32.0 °F 92% 30.04 in 10.0 mi WSW 5.8 mph - N/A   Clear
10:53 PM 32.0 °F 24.8 °F 30.0 °F 92% 30.05 in 10.0 mi WSW 8.1 mph - N/A   Clear
11:53 PM 30.9 °F 23.5 °F 30.0 °F 96% 30.06 in 10.0 mi WSW 8.1 mph - N/A   Unknown